Probability
0 0 0 0 0 0 0 0 0 0 0 0 0 0 0 0 0 0 0 5 26 62 90 99 100 100 100 100 100 100 100 99 97 97 97 94 86 74 57 40 29 21 14 11
0 0 0 0 0 0 0 0 0 0 0 0 0 0 0 0 0 0 0 3 22 60 90 99 99 100 99 99 100 100 99 98 97 97 95 90 78 62 44 30 20 14 10 7
0 0 0 0 0 0 0 0 0 0 0 0 0 0 0 0 0 0 0 1 15 51 86 99 99 98 98 98 99 99 98 97 97 95 91 80 64 47 33 21 12 7 4 3
0 0 0 0 0 0 0 0 0 0 0 0 0 0 0 0 0 0 0 0 8 37 76 96 99 98 98 99 99 99 98 98 97 95 88 75 58 44 32 21 11 5 2 1
0 0 0 0 0 0 0 0 0 0 0 0 0 0 0 0 0 0 0 0 3 25 63 93 100 99 99 100 99 98 98 97 95 93 89 76 59 44 31 19 10 4 1 0
0 0 0 0 0 0 0 0 0 0 0 0 0 0 0 0 0 0 0 0 3 22 60 91 100 100 99 98 95 92 90 87 81 75 70 59 45 31 19 10 5 2 0 0
0 0 0 0 0 0 0 0 0 0 0 0 0 0 0 0 0 0 1 4 13 37 70 93 99 97 94 87 79 72 65 58 48 38 31 26 19 12 6 3 1 0 0 0
0 0 0 0 0 0 0 0 0 0 0 0 0 0 0 0 0 1 4 16 38 66 86 96 94 86 76 63 50 39 30 22 15 9 6 5 3 2 1 0 0 0 0 0
0 0 0 0 0 0 0 0 0 0 0 0 0 0 0 0 0 2 12 37 69 89 93 87 75 58 43 31 21 12 6 3 1 0 0 0 0 0 0 0 0 0 0 0
0 0 0 0 0 0 0 0 0 0 0 0 0 0 0 0 0 4 22 57 85 91 80 62 41 24 13 8 4 1 0 0 0 0 0 0 0 0 0 0 0 0 0 0
0 0 0 0 0 0 0 0 0 0 0 0 0 0 1 1 1 7 33 71 88 76 54 31 13 4 1 0 0 0 0 0 0 0 0 0 0 0 0 0 0 0 0 0
0 0 0 0 0 0 0 0 0 0 0 0 0 1 3 6 11 23 52 82 83 56 27 9 2 0 0 0 0 0 0 0 0 0 0 0 0 0 0 0 0 0 0 0
0 0 0 0 0 0 0 0 0 0 0 0 0 1 6 14 25 44 67 77 62 31 10 2 0 0 0 0 0 0 0 0 0 0 0 0 0 0 0 0 0 0 0 0
0 0 0 0 0 0 0 0 0 0 0 0 0 1 6 14 27 43 55 50 30 11 2 0 0 0 0 0 0 0 0 0 0 0 0 0 0 0 0 0 0 0 0 0
0 0 0 0 0 0 0 0 0 0 0 0 0 2 8 14 21 30 36 28 14 3 0 0 0 0 0 0 0 0 0 0 0 0 0 0 0 0 0 0 0 0 0 0
0 0 0 0 0 0 0 0 0 0 0 0 4 12 23 31 35 38 42 37 22 6 0 0 0 0 0 0 0 0 0 0 0 0 0 0 0 0 0 0 0 0 0 0
0 0 0 0 0 0 0 0 0 0 0 2 8 19 31 39 41 42 48 48 34 12 1 0 0 0 0 0 0 0 0 0 0 0 0 0 0 0 0 0 0 0 0 0
0 0 0 0 0 0 0 0 0 0 1 3 9 13 16 19 21 21 28 34 27 11 2 0 0 0 0 0 0 0 0 0 0 0 0 0 0 0 0 0 0 0 0 0
0 0 0 0 0 0 0 0 0 0 1 2 4 4 2 2 2 2 6 9 8 4 1 0 0 0 0 0 0 0 0 0 0 0 0 0 0 0 0 0 0 0 0 0
0 0 0 0 0 0 0 0 0 0 0 1 1 1 0 0 0 0 0 0 0 0 0 0 0 0 0 0 0 0 0 0 0 0 0 0 0 0 0 0 0 0 0 0
0 0 0 0 0 0 0 0 0 0 0 0 0 0 0 0 0 0 0 0 0 0 0 0 0 0 0 0 0 0 0 0 0 0 0 0 0 0 0 0 0 0 0 0
0 0 0 0 0 0 0 0 0 0 0 0 0 0 1 0 0 0 0 0 0 0 0 0 0 0 0 0 0 0 0 0 0 0 0 0 0 0 0 0 0 0 0 0
0 0 0 0 0 0 0 0 0 0 0 0 0 0 0 0 0 0 0 0 0 0 0 0 0 0 0 0 0 0 0 0 0 0 0 0 0 0 0 0 0 0 0 0
0 0 0 0 0 0 0 0 0 0 0 0 0 0 0 0 0 0 0 0 0 0 0 0 0 0 0 0 0 0 0 0 0 0 0 0 0 0 0 0 0 0 0 0
0 0 0 0 0 0 0 0 0 0 0 0 0 0 0 0 0 0 0 0 0 0 0 0 0 0 0 0 0 0 0 0 0 0 0 0 0 0 0 0 0 0 0 0
0 0 0 0 0 0 0 0 0 0 0 0 0 0 0 0 0 0 0 0 0 0 0 0 0 0 0 0 0 0 0 0 0 0 0 0 0 0 0 0 0 0 0 0
Wind_Speed
16 15 16 18 20 20 20 21 19 17 17 19 19 16 14 15 11 13 12 11 10 11 14 15 13 14 12 10 9 8 8 9 8 7 8 7 7 7 7 7 8 8 7 7
17 20 20 19 19 21 21 21 20 17 15 14 12 13 13 14 18 13 14 12 10 12 17 17 15 12 12 10 8 7 8 10 9 7 6 6 7 7 7 7 6 7 6 4
22 19 21 21 19 18 17 16 16 16 16 17 18 18 14 14 21 21 15 15 14 12 19 20 18 15 13 11 9 8 8 9 9 10 8 8 7 7 7 7 5 5 5 6
21 23 15 12 16 16 13 13 15 16 16 15 18 17 16 18 21 22 20 18 17 14 17 20 18 16 13 11 8 7 9 8 9 9 10 11 9 8 8 6 5 5 4 5
19 20 20 17 15 14 13 13 15 15 15 16 17 18 17 17 19 17 18 19 16 15 17 21 19 15 12 11 8 8 9 9 8 7 8 7 7 7 5 6 6 5 5 4
21 19 19 18 16 15 13 13 14 14 13 17 17 19 19 17 19 15 14 13 13 14 16 20 18 15 12 11 9 9 9 8 7 8 7 7 8 7 7 5 5 3 5 5
23 23 20 14 13 13 14 11 10 13 14 17 19 20 17 17 18 12 4 2 2 6 16 19 18 16 15 13 11 9 9 9 8 9 8 8 7 6 5 3 3 0 3 6
21 20 21 18 14 13 14 15 12 13 13 13 12 10 9 10 6 1 3 5 8 14 18 18 17 16 15 14 12 11 10 9 9 9 8 6 4 3 4 4 2 2 4 6
18 17 19 22 19 17 16 15 16 15 17 17 15 16 14 6 7 7 5 5 15 19 19 18 16 14 13 13 11 10 10 9 9 9 7 6 6 6 6 3 2 4 3 3
11 11 13 10 15 18 17 15 11 13 14 15 15 16 10 8 4 1 5 13 18 17 17 17 15 13 12 11 10 9 8 9 9 8 6 6 5 5 4 4 5 4 3 3
6 8 13 10 10 13 14 17 15 12 12 14 13 9 5 6 4 2 5 16 17 14 15 15 14 13 13 11 10 8 8 8 7 6 6 6 4 4 3 4 4 3 2 0
7 8 12 15 15 15 15 15 14 12 14 15 14 11 6 8 8 6 2 18 18 16 15 15 14 14 12 11 9 8 7 6 6 6 5 4 3 2 3 4 4 2 1 2
10 6 9 13 14 15 15 13 13 12 10 11 12 7 10 12 13 14 11 16 15 15 16 15 13 12 11 10 8 8 6 5 5 5 5 2 2 2 3 4 3 1 1 3
6 7 11 14 10 8 11 11 12 13 12 12 12 7 9 10 10 12 12 10 12 15 15 15 13 12 10 9 8 8 7 7 6 4 3 1 1 2 2 3 2 2 3 4
5 11 14 17 20 18 14 8 5 10 13 12 10 7 7 5 5 5 9 11 12 13 14 14 13 12 11 11 10 10 9 7 6 4 2 0 1 2 2 3 3 4 5 6
7 8 13 16 18 19 18 15 12 12 14 14 12 7 10 9 8 7 5 10 13 13 14 14 14 13 12 11 11 10 8 6 5 5 3 1 1 2 2 2 3 4 5 6
5 6 10 14 16 16 18 16 15 12 9 9 7 12 13 14 15 15 12 5 10 14 15 15 13 13 12 11 10 9 7 5 4 4 4 3 2 2 3 4 5 5 5 6
6 8 7 11 13 16 13 8 4 4 10 12 11 12 12 11 13 16 15 11 9 13 15 14 14 13 12 10 9 7 4 3 2 1 2 2 1 3 3 3 4 5 5 5
7 7 8 9 13 14 11 7 5 2 9 12 11 10 9 6 8 14 15 14 13 14 14 14 13 13 11 8 6 4 2 2 2 1 0 1 2 2 3 5 5 5 5 4
7 7 9 11 12 11 4 7 6 4 5 10 9 9 8 7 2 6 10 13 14 15 14 13 12 11 9 6 4 3 3 3 2 2 1 1 2 3 3 5 5 4 4 4
8 9 11 12 13 7 7 5 7 5 4 7 7 7 6 7 8 10 11 12 13 14 14 12 11 8 6 5 4 4 5 4 3 3 3 3 3 3 6 5 4 4 4 5
5 5 8 8 10 2 9 6 7 6 5 5 7 6 9 13 13 12 12 13 13 13 12 10 8 7 6 7 6 5 4 3 3 3 4 4 5 6 6 5 4 4 5 5
5 4 3 2 1 3 4 4 5 5 6 7 7 6 12 14 13 13 12 12 11 11 9 7 8 8 7 7 5 4 3 4 4 4 4 4 6 6 5 5 5 5 5 5
5 7 6 6 2 1 3 5 6 8 8 7 5 6 14 15 15 14 12 10 9 8 8 8 8 7 6 6 5 4 5 5 5 3 2 4 5 5 5 4 5 5 6 6
5 5 7 10 10 9 6 9 9 7 6 5 6 11 15 17 16 15 12 10 9 9 9 8 7 7 8 7 6 6 6 4 2 1 2 4 6 5 4 5 5 5 5 4
6 6 6 7 8 7 8 9 8 5 4 7 12 15 15 15 16 14 11 10 9 8 7 7 8 8 8 8 7 6 5 5 5 4 4 5 5 4 4 3 3 2 2 4
Wind_Direction
206 220 224 223 223 240 255 265 268 260 243 246 233 230 244 259 234 215 226 232 211 184 148 137 145 147 147 148 161 170 162 144 141 137 137 133 127 118 109 102 94 85 81 74
212 222 233 237 234 230 240 256 268 276 285 286 272 235 236 262 273 248 221 234 229 177 143 146 152 156 158 161 167 170 158 147 144 137 133 129 123 115 105 96 93 95 93 86
227 229 221 232 248 249 246 255 266 274 278 274 274 261 243 251 266 267 236 223 241 203 162 158 160 164 168 169 174 173 157 152 142 135 125 117 109 114 118 121 115 114 110 90
229 240 240 226 240 246 246 252 262 269 272 271 271 270 250 237 240 245 243 228 227 221 179 165 165 168 165 159 163 163 151 147 135 135 139 144 149 150 142 138 130 125 96 89
230 233 239 234 236 249 253 253 255 259 260 262 266 272 271 266 253 242 240 224 219 225 190 170 165 159 147 141 141 137 136 132 137 138 141 146 129 121 124 120 132 133 116 109
253 251 241 240 236 228 246 261 262 262 263 260 256 259 264 260 263 253 249 209 209 222 180 158 151 139 123 116 113 116 118 113 106 98 93 93 102 113 122 129 140 165 146 136
246 252 253 237 240 232 226 238 249 241 237 247 248 249 256 256 260 264 271 135 237 159 139 137 136 133 126 118 114 114 112 105 99 94 89 89 92 99 106 115 126 281 135 121
231 233 233 232 221 239 233 225 241 261 266 271 277 273 275 282 266 190 104 88 89 99 113 122 129 132 130 126 124 122 118 113 107 99 93 92 112 134 103 56 95 92 66 99
246 241 225 216 210 218 242 237 237 248 263 273 280 287 287 250 225 206 199 122 100 102 109 117 123 129 129 127 123 121 120 116 110 103 97 86 69 74 94 97 54 92 74 112
268 287 289 218 200 207 227 246 251 249 258 270 279 283 298 347 340 126 86 94 103 112 119 125 129 129 125 122 115 112 115 115 114 121 133 120 109 106 126 115 77 76 82 74
294 286 286 277 222 228 226 231 242 261 269 273 276 283 30 24 30 72 143 130 129 131 130 129 128 125 124 123 121 116 111 108 106 99 90 104 114 127 137 118 118 109 87 260
294 278 276 277 280 276 265 251 244 250 253 258 269 282 53 34 6 344 149 133 134 135 131 128 127 127 127 126 121 110 103 100 99 99 94 96 111 136 146 122 110 120 126 290
341 281 259 265 266 271 274 262 257 264 269 264 263 275 63 39 26 26 72 117 126 128 126 126 126 126 125 123 117 107 100 93 96 106 114 131 160 141 107 104 98 56 330 309
324 287 269 266 284 309 310 302 293 279 259 256 263 287 57 30 20 46 68 92 116 125 128 130 127 123 119 114 109 100 81 69 67 68 86 103 82 94 92 80 59 13 359 345
259 265 266 272 279 279 277 280 305 317 309 297 302 343 46 49 42 66 115 134 131 131 133 132 128 122 111 99 89 82 69 52 34 12 360 69 129 103 70 50 34 30 17 6
222 273 284 278 272 273 272 267 250 239 257 274 292 39 61 53 45 38 100 139 141 141 135 127 121 114 106 100 94 83 68 40 7 342 324 5 38 58 56 42 58 44 25 11
295 278 273 274 279 281 270 275 284 286 311 339 15 52 47 47 42 37 32 81 144 140 132 125 117 111 105 99 93 83 64 32 8 355 355 357 352 42 44 31 43 33 25 20
292 302 296 282 279 267 273 293 335 357 36 38 48 53 50 49 57 48 37 46 91 117 117 113 111 106 101 96 89 83 69 38 13 324 303 312 26 64 45 48 40 34 34 24
238 260 274 277 272 268 277 358 347 320 71 40 37 33 32 28 93 60 49 60 81 97 103 105 107 107 105 104 107 112 131 178 199 205 224 45 42 39 37 48 41 40 20 7
229 228 246 257 266 271 34 32 7 317 107 41 33 22 12 349 356 73 72 84 92 98 105 109 111 112 115 124 138 148 160 163 163 162 145 95 45 15 36 56 42 25 358 3
229 237 237 247 254 259 45 336 304 294 69 25 16 13 18 45 75 101 98 98 104 109 113 117 121 124 135 155 167 171 166 173 189 182 145 88 36 13 60 52 40 22 11 12
257 257 260 262 260 235 32 8 30 38 25 14 12 29 89 102 104 107 110 112 115 118 123 129 134 145 169 185 182 170 167 174 160 127 97 73 56 36 42 38 41 39 17 7
288 327 332 340 28 71 41 22 22 6 358 8 12 60 117 119 118 117 118 121 125 129 137 152 161 167 179 183 180 155 143 132 109 86 76 77 80 74 50 39 38 36 24 15
332 339 309 300 236 316 346 7 15 16 12 6 8 113 127 126 125 124 125 129 136 148 165 177 171 157 147 143 133 115 98 88 83 76 80 105 96 89 74 49 38 40 26 18
299 290 289 284 297 315 355 17 9 6 8 26 75 114 125 128 127 128 132 145 159 172 178 170 150 131 120 116 111 101 92 90 99 92 87 98 86 76 76 71 47 44 63 44
329 330 313 307 343 333 328 338 342 356 47 97 108 111 118 125 129 136 150 165 169 164 152 137 125 117 111 107 101 93 82 59 34 44 57 76 78 67 62 86 115 99 102 166